Torna al catalogo

FENGYUN 1C DEB

LostSSO
NORAD 46996·DEBRIS·🇨🇳 China

Lanciato May 10, 1999 da Taiyuan Satellite Launch Center

Loading…

Prossimi Passaggi (prossime 24 ore)

TLE

ObsoletoSource: Space-Track

Epoca: Apr 28, 2024, 10:30 UTC

1 46996U 99025EZW 24119.43805378  .00005989  00000-0  32177-2 0  9997
2 46996  98.9618 197.7750 0054802 339.4131  20.4832 14.12506480535627

Traccia FENGYUN 1C DEB in tempo reale con AllMySat

Download on the App Store